Theta_e
345 344 344 343 341 340 335 332 333 333 333 333 334 335 337 337 335 334 333 332 336 340 338 335 336 335 334 333 332 333 332 331 330 325 325 326 326 329 331 332 332 331 330 330 329 327 323 319 318 319 320 325 332 334 333 334 333 332 333 332 332 329
345 345 345 344 343 342 336 335 337 335 335 335 333 334 335 336 335 334 334 334 339 342 341 339 339 337 336 335 332 332 332 330 328 324 325 327 327 330 332 332 332 330 330 329 330 329 326 321 318 318 322 329 333 332 333 334 332 332 332 332 331 328
345 346 346 344 344 343 340 340 340 338 337 337 335 336 336 337 337 336 337 338 341 342 343 342 341 339 337 336 333 331 330 326 325 325 325 327 329 331 332 332 332 330 330 331 333 334 331 327 321 320 327 333 331 331 333 332 332 332 331 331 329 327
346 346 345 345 344 344 342 342 342 340 339 338 338 340 339 339 339 339 340 341 342 341 342 343 341 340 338 336 333 331 329 324 324 324 325 329 330 331 332 332 331 330 331 334 337 336 335 333 327 326 331 333 330 331 332 332 332 331 331 331 328 327
346 345 345 345 344 344 343 343 343 341 341 340 340 341 340 340 340 340 341 341 341 341 342 342 340 340 339 338 336 335 333 330 330 327 328 332 332 332 334 334 332 331 334 336 337 337 335 333 331 331 333 332 331 331 332 332 332 331 332 331 327 326
345 345 345 345 344 344 344 343 343 342 341 341 341 341 341 341 341 342 342 341 341 342 342 341 340 341 340 339 338 337 336 335 335 331 330 333 333 333 335 336 335 334 336 336 337 337 335 332 331 332 333 332 332 332 332 332 332 331 332 330 327 327
344 344 344 345 344 343 343 343 343 342 341 340 340 341 341 342 342 342 342 341 342 341 341 341 341 341 341 339 339 338 337 336 335 333 332 332 333 334 335 335 336 336 336 336 336 336 334 332 332 332 333 333 332 332 331 331 330 330 330 330 328 327
343 344 344 344 344 343 343 343 342 342 341 340 340 341 341 342 342 342 342 342 341 340 340 340 340 340 340 340 339 339 338 336 335 334 332 332 332 333 335 336 336 336 336 336 336 336 334 332 332 333 333 332 332 331 331 330 330 330 330 330 329 327
343 344 345 344 343 343 342 342 342 342 341 340 340 341 342 342 342 342 341 341 340 340 340 340 340 340 340 340 339 339 338 336 335 334 334 332 332 332 334 336 336 336 336 336 335 335 334 332 332 333 333 333 332 332 331 331 331 331 330 330 329 324
343 344 344 343 342 343 342 342 343 342 341 341 341 342 342 342 342 341 341 341 340 340 340 340 340 340 340 340 340 339 338 337 335 334 334 333 332 332 333 335 335 335 335 335 335 334 334 332 332 333 333 333 332 332 332 331 331 331 330 330 329 323
343 344 343 343 342 343 343 343 343 342 342 342 341 342 342 341 341 340 341 341 341 340 339 340 340 339 339 340 340 339 338 337 335 334 334 334 333 332 333 334 334 334 335 334 335 334 333 332 332 333 333 333 332 333 333 332 332 331 330 330 329 326
343 343 342 343 343 343 343 342 342 342 342 341 341 341 341 341 341 340 341 341 341 340 340 340 340 339 338 339 339 339 338 337 335 334 334 334 333 332 333 333 334 335 334 334 334 333 333 331 332 332 333 333 333 333 333 333 332 331 331 330 329 328
341 341 341 342 342 341 340 340 341 340 340 340 340 341 341 341 341 341 341 341 341 340 340 340 340 339 338 339 339 338 338 338 337 335 333 334 334 333 332 333 334 335 334 334 334 332 332 332 332 332 333 333 333 333 333 333 333 332 331 329 328 328
339 340 340 340 340 339 339 339 339 339 339 339 340 340 341 341 341 341 341 341 340 340 340 339 339 339 338 338 338 338 338 338 338 337 335 334 334 333 332 333 333 334 334 334 333 332 332 332 333 333 333 333 333 333 333 333 333 332 331 329 328 328
338 338 339 339 339 339 339 338 338 338 338 339 340 340 340 340 341 341 340 340 340 340 339 339 339 339 339 338 337 338 338 338 338 338 336 334 334 334 333 333 332 333 334 334 333 332 331 332 333 333 333 333 333 333 333 333 333 333 331 329 329 329
337 338 338 339 339 338 338 337 337 337 337 338 339 339 339 339 340 340 339 339 340 340 339 338 338 338 339 338 337 338 338 338 338 337 337 336 335 334 333 333 332 332 334 334 334 333 333 333 333 333 333 333 333 333 334 334 333 333 332 330 329 330
337 337 337 338 338 338 338 337 338 337 337 338 338 339 338 337 338 338 338 338 339 339 338 338 338 338 339 338 338 338 338 338 338 337 337 337 336 334 334 334 334 333 334 335 335 335 335 335 334 334 333 333 334 334 334 334 334 333 332 331 330 330
336 337 337 337 337 337 337 337 337 338 338 338 338 339 338 337 337 338 337 337 338 339 338 338 338 338 338 338 338 338 338 337 337 337 337 337 336 335 335 335 335 335 335 336 335 335 336 335 335 334 334 334 335 335 334 334 334 333 332 330 330 331
335 336 336 336 336 336 337 336 337 337 337 337 337 338 337 335 336 337 335 334 335 336 336 338 337 336 336 336 337 337 337 336 336 336 336 336 335 335 336 336 336 336 336 336 334 335 335 335 335 334 334 335 335 335 334 333 333 333 332 331 331 331
336 336 336 337 337 337 337 337 337 338 338 338 337 336 336 335 336 336 335 333 334 334 334 336 335 335 335 335 335 336 336 335 335 335 335 335 335 335 336 337 336 335 335 335 335 335 335 334 334 334 334 335 335 334 333 333 333 333 332 332 331 331
336 336 337 337 338 338 339 339 339 339 339 339 338 337 337 337 337 337 337 335 334 334 334 335 334 335 336 335 335 335 335 335 335 335 335 334 334 334 334 335 335 333 333 335 335 335 334 334 334 334 334 334 334 333 333 333 332 333 332 332 332 331
335 336 336 337 337 338 338 338 339 339 339 339 338 338 338 338 337 337 337 336 335 335 335 335 334 335 336 336 335 335 335 336 335 335 335 333 333 333 332 333 333 332 332 334 335 334 334 334 333 332 332 332 332 331 332 332 332 333 332 331 332 332
336 335 336 336 336 336 337 337 338 338 338 338 338 337 337 338 337 336 336 336 336 335 334 334 334 335 335 335 336 335 335 335 335 335 335 334 333 333 332 331 331 331 332 333 334 333 333 334 333 332 331 331 331 330 331 332 332 333 332 331 332 332
336 335 335 335 335 336 336 336 337 338 337 337 337 337 337 337 337 336 335 335 335 335 334 334 334 335 334 335 334 335 335 334 334 334 334 333 333 333 332 331 330 331 332 332 333 333 333 334 333 332 331 331 330 330 331 331 331 332 331 331 332 331
335 336 336 335 335 336 336 336 336 337 337 337 337 337 337 337 337 336 335 335 335 335 335 335 335 335 334 334 334 334 334 334 334 333 333 332 332 332 332 331 330 330 331 331 331 331 332 332 333 332 330 330 330 330 330 331 332 331 331 331 331 331
334 335 336 336 337 337 337 337 337 336 337 337 337 337 337 336 337 336 335 335 335 335 335 335 334 334 333 333 334 334 334 334 333 333 332 331 331 331 331 331 330 330 330 330 329 330 331 331 331 330 330 331 331 330 331 332 332 331 331 331 331 331
333 333 335 335 336 336 336 337 337 337 337 337 337 338 337 336 336 336 335 335 335 335 334 334 334 334 334 333 334 334 334 333 333 333 332 331 331 330 331 331 331 330 330 329 329 329 330 330 330 330 330 331 330 330 332 332 331 331 331 330 330 331
332 332 333 333 334 335 335 336 336 336 336 337 337 337 336 335 335 335 335 335 335 334 334 334 334 334 334 333 333 333 333 333 332 332 331 331 331 330 330 331 331 330 329 330 330 329 329 329 330 330 330 330 329 329 331 331 331 331 331 331 330 329
330 330 331 332 333 334 335 335 335 335 336 336 336 335 335 335 335 334 335 334 334 334 334 334 334 334 334 333 333 333 332 332 331 331 331 331 331 330 329 330 330 330 330 330 330 329 329 329 330 330 330 330 329 330 330 329 330 331 331 332 330 329
326 327 329 330 331 332 333 334 334 335 335 335 335 335 335 335 335 334 334 334 334 334 334 333 333 334 334 333 332 332 332 332 331 331 331 331 331 330 329 330 330 330 330 330 330 330 329 330 330 329 329 329 330 331 330 329 330 330 329 330 330 330
324 324 326 327 329 330 331 332 333 334 334 334 334 334 334 335 335 335 334 333 333 333 333 333 333 333 333 333 332 332 332 332 331 330 331 332 332 331 331 331 331 330 330 330 330 330 330 330 329 329 329 330 332 332 330 330 331 331 331 330 330 331
323 323 324 325 326 328 330 331 331 333 334 334 334 334 334 335 335 335 334 333 333 333 333 333 333 333 333 333 332 331 331 331 331 331 331 331 331 331 331 332 332 331 331 331 330 331 331 331 330 330 330 331 332 331 329 330 331 331 332 331 330 331
321 322 323 323 325 326 328 329 330 331 332 333 333 333 333 334 334 333 333 333 333 332 333 334 333 333 333 333 332 331 331 331 331 331 331 331 331 331 331 332 332 331 331 331 331 331 332 332 332 332 331 330 331 331 330 330 329 330 330 329 330 331
320 320 321 322 323 324 326 327 328 329 329 330 331 331 332 332 333 332 331 332 332 333 333 333 333 333 333 333 332 331 332 332 331 331 331 332 332 331 331 331 331 331 330 330 331 331 332 332 332 332 332 331 330 330 331 330 329 329 329 328 329 331
318 319 319 320 321 323 324 325 326 328 329 329 329 329 330 330 330 331 331 331 332 332 333 333 333 333 333 333 332 332 332 332 332 332 332 333 332 331 331 331 332 332 330 330 330 330 331 331 331 332 333 332 331 331 331 330 329 329 329 329 329 330
317 318 318 319 319 321 322 323 325 327 327 328 329 329 329 330 329 330 330 330 331 332 332 332 332 332 333 333 333 332 332 333 333 333 333 332 331 331 331 331 332 331 331 330 330 330 330 330 331 332 333 332 330 330 330 329 329 330 330 329 328 328
315 316 317 318 318 319 320 320 322 324 325 327 328 329 330 330 330 330 330 330 330 331 331 332 332 332 332 333 333 333 332 332 333 333 333 331 330 331 331 331 331 331 331 331 331 331 330 330 332 332 333 331 330 330 330 330 331 332 331 329 329 329
Wind_Speed
16 16 16 16 16 15 15 16 15 15 16 17 18 19 18 16 14 13 15 18 16 14 12 11 11 10 8 8 9 9 9 10 12 15 15 14 12 10 9 9 11 12 12 10 9 9 8 8 10 12 13 13 13 9 6 7 7 8 9 10 10 12
15 16 15 15 16 16 14 15 14 14 14 13 15 16 15 13 12 13 15 17 15 13 12 11 11 10 9 9 9 9 9 10 13 15 15 14 13 11 9 10 11 12 12 11 10 9 8 7 8 11 12 12 9 5 6 6 7 8 8 9 10 12
14 16 15 14 15 16 16 16 15 14 14 13 13 14 14 13 13 14 15 16 14 13 12 10 11 10 10 10 9 9 8 10 13 15 16 14 14 12 11 11 12 13 12 10 9 8 8 6 7 9 9 7 5 5 6 6 7 7 8 9 10 11
14 16 15 13 14 15 16 16 13 13 15 14 14 14 14 13 13 13 13 13 12 12 11 10 11 11 10 10 10 9 8 9 12 14 15 13 13 12 11 12 13 13 12 9 7 7 8 7 6 6 4 4 5 6 6 6 6 7 8 9 9 10
13 15 14 12 12 13 14 13 12 12 12 13 12 12 12 11 11 11 11 11 10 9 8 9 11 10 9 9 10 10 9 10 11 12 13 11 11 12 12 13 14 13 10 7 6 6 6 7 7 5 4 5 6 6 5 6 6 7 8 7 9 9
12 13 12 10 10 11 12 11 10 11 11 12 11 10 10 10 10 11 10 8 7 7 7 7 9 9 8 7 8 9 9 11 11 12 11 10 10 11 11 12 13 12 9 7 7 6 6 7 7 6 5 5 5 6 6 6 6 6 7 7 8 8
11 11 9 8 8 9 10 9 9 10 10 11 11 10 10 9 9 10 9 8 7 7 7 8 9 10 9 7 7 7 7 9 10 10 10 9 10 11 11 11 12 11 9 8 7 6 6 7 6 6 5 6 6 6 6 6 6 6 6 6 6 6
9 8 8 8 8 8 9 8 8 9 9 10 11 10 9 9 9 10 9 8 8 8 8 9 10 10 8 8 7 6 6 7 8 9 10 9 10 11 11 10 11 10 9 8 7 7 7 7 6 6 6 6 6 6 6 5 5 5 5 5 5 5
8 8 8 8 8 8 9 9 8 8 8 9 10 9 9 9 9 9 9 9 9 8 9 9 9 9 8 8 7 6 6 6 7 8 9 9 10 12 11 10 10 10 9 8 8 8 7 7 7 6 6 7 7 6 6 5 5 5 5 5 4 4
8 8 7 8 8 7 8 9 8 8 8 9 9 8 9 9 8 8 8 9 9 8 9 9 9 10 9 8 7 6 6 7 8 8 9 10 10 12 12 11 11 10 9 8 8 8 8 8 7 6 7 8 8 6 5 5 5 5 5 5 5 6
6 7 7 7 7 7 7 8 9 8 8 9 9 8 8 8 8 9 9 8 8 9 9 10 10 10 9 8 7 7 7 8 9 9 10 10 11 12 12 13 12 11 10 9 9 9 8 8 7 7 7 7 7 6 5 5 5 5 5 5 6 7
5 6 7 6 7 7 7 8 8 8 8 8 8 7 7 7 8 8 8 8 9 9 9 9 9 9 8 9 8 8 8 8 8 9 10 10 11 11 12 13 12 12 12 10 10 10 9 8 8 7 7 7 7 6 6 5 6 5 5 6 6 7
4 6 6 7 7 7 7 7 7 7 7 7 6 6 6 7 7 8 8 8 9 9 9 9 9 9 9 9 9 8 8 8 8 8 9 11 12 11 12 13 14 14 13 12 12 14 12 9 9 8 7 7 7 7 6 6 6 6 6 6 6 7
4 5 6 7 7 6 7 6 6 6 6 6 5 5 6 6 6 7 7 8 9 10 10 9 9 10 10 9 9 9 9 9 8 8 9 11 12 12 12 13 14 14 14 14 14 15 14 12 10 8 8 7 7 7 6 6 6 6 6 6 6 7
4 5 6 6 6 6 6 6 6 6 6 5 5 5 6 6 6 7 7 8 9 10 11 10 9 10 11 10 9 9 10 10 9 9 9 11 12 13 13 13 14 14 14 14 15 15 14 13 11 9 8 8 7 6 6 6 7 7 6 6 7 7
4 4 5 6 6 6 6 6 6 6 6 5 6 6 6 7 6 6 6 8 9 10 10 9 9 10 11 11 10 10 10 10 10 10 10 11 12 13 14 14 15 15 15 14 13 14 13 12 11 11 9 8 8 7 7 6 7 7 6 7 7 7
3 4 5 6 6 7 7 7 6 6 5 5 6 6 7 8 7 6 7 8 9 10 9 9 10 11 11 10 10 10 11 11 11 11 11 11 13 13 14 14 14 15 14 13 13 13 12 11 11 11 10 10 9 8 6 6 6 6 6 7 7 8
4 4 5 6 7 7 7 7 7 7 6 6 5 4 6 8 7 6 7 9 10 10 9 9 10 11 11 11 10 10 11 12 12 12 12 12 12 12 13 14 14 14 13 13 14 13 12 11 11 11 11 10 9 7 6 6 7 6 6 7 8 8
4 5 6 7 8 8 8 8 7 7 7 7 6 6 9 11 10 9 10 12 13 12 11 9 11 13 14 13 12 12 13 15 15 14 13 12 12 12 13 14 14 14 14 13 13 13 12 11 10 10 10 10 9 7 7 7 8 7 7 8 8 8
3 5 6 7 8 7 8 8 8 8 8 8 8 11 14 15 13 11 11 14 14 15 14 13 16 16 15 15 15 16 17 17 17 17 17 16 14 14 15 15 15 15 14 13 13 12 12 11 10 9 9 9 8 8 8 9 9 9 9 8 8 8
3 3 4 6 7 7 8 8 8 8 8 8 9 11 14 15 12 10 11 14 16 17 17 18 19 17 15 15 16 17 18 17 17 18 19 20 18 17 17 15 15 17 15 13 13 12 12 12 11 9 8 8 8 9 9 10 12 11 10 9 9 9
5 5 4 5 6 7 8 8 8 8 7 8 10 11 12 13 11 10 11 13 15 18 19 18 18 18 17 16 17 18 18 17 18 17 18 20 20 19 19 16 15 17 17 14 12 13 14 13 12 10 9 7 7 8 9 10 13 13 12 11 10 9
4 5 5 4 4 5 8 9 8 8 8 9 11 12 13 12 11 11 12 12 14 17 18 17 16 17 16 16 16 18 18 19 19 17 17 18 20 20 19 18 18 18 17 14 11 13 16 15 12 11 11 8 5 7 8 10 13 14 13 12 11 10
2 4 5 5 3 3 6 7 7 8 9 10 11 11 12 12 10 11 11 11 13 15 15 15 15 16 15 14 14 15 16 19 19 18 17 19 21 21 19 20 21 20 19 16 12 13 17 18 14 11 9 5 3 4 7 9 12 13 13 13 13 12
3 1 3 3 3 3 4 6 8 9 9 10 11 10 11 12 11 11 10 11 13 14 14 14 14 14 14 13 13 13 15 18 19 18 18 20 23 22 20 21 21 21 21 19 15 13 15 19 18 14 10 4 2 3 6 8 11 11 14 14 13 13
6 4 2 3 5 5 5 7 8 9 8 9 10 9 10 10 11 12 11 11 13 13 14 14 13 13 14 13 11 12 13 16 17 16 16 18 21 23 22 22 23 23 23 20 17 14 15 18 19 17 16 11 7 5 4 8 9 6 11 13 12 13
6 5 4 3 4 6 5 6 7 9 9 8 9 9 9 9 10 12 11 11 12 13 12 13 13 12 13 14 13 12 13 14 15 15 15 15 18 23 24 23 23 23 21 19 18 17 16 17 19 20 20 18 14 9 5 7 8 5 8 10 12 13
7 6 5 4 4 6 7 8 8 9 10 10 10 10 10 10 11 10 10 10 10 11 10 11 12 13 14 15 15 14 13 13 14 14 14 14 16 22 25 24 21 20 20 21 21 21 20 19 19 20 21 21 20 14 9 9 9 7 7 7 9 11
11 8 7 7 6 7 8 9 10 10 10 10 11 11 10 11 11 10 10 11 10 11 11 11 12 13 14 15 14 14 13 13 14 14 13 13 14 17 23 24 20 19 21 21 21 21 21 21 20 19 19 20 21 16 12 13 13 11 8 6 6 8
13 11 10 10 9 8 8 8 9 10 11 11 10 11 11 12 13 11 11 11 10 11 11 11 12 13 13 14 14 14 13 14 15 14 14 14 14 14 18 19 18 19 19 19 20 19 18 19 19 20 20 18 16 13 11 14 16 15 12 10 9 9
14 13 12 12 10 9 9 9 9 10 12 12 11 11 11 13 13 11 11 11 11 11 11 11 12 13 13 14 15 15 14 15 15 15 15 15 15 15 15 15 16 18 18 17 18 17 16 17 18 20 21 17 14 14 14 13 12 13 12 11 9 9
14 14 13 12 11 10 9 9 9 10 12 12 12 12 13 13 12 11 11 12 12 12 11 11 12 14 15 14 15 15 14 15 16 15 15 15 15 15 14 13 14 15 16 17 17 16 16 17 17 18 19 18 15 16 19 16 11 11 11 9 7 7
15 15 14 13 12 11 10 10 9 10 11 11 10 11 14 14 15 15 13 13 14 13 11 11 12 15 16 15 15 15 15 17 17 16 15 14 14 14 12 12 14 14 14 15 16 15 15 15 16 17 18 18 18 18 20 20 17 15 14 13 10 6
14 14 14 13 12 11 11 11 10 10 10 11 11 12 13 14 16 18 16 15 14 13 12 12 13 15 15 16 16 15 15 17 17 16 15 14 13 13 12 12 13 14 15 15 13 13 15 15 16 17 16 16 18 17 17 18 20 19 16 14 11 7
14 14 15 15 14 12 11 11 10 11 11 11 12 13 13 14 15 16 16 16 15 13 13 13 14 14 15 16 16 15 15 16 16 15 14 15 15 14 12 11 11 13 15 15 14 14 15 16 17 17 15 14 17 18 16 17 20 19 17 13 10 11
15 14 15 15 14 12 11 11 10 11 13 13 13 14 14 14 14 14 14 14 14 13 13 13 14 14 14 15 14 14 15 16 17 15 15 15 15 14 13 13 13 14 17 17 17 17 18 18 18 16 15 15 18 19 17 17 18 15 15 14 12 14
15 15 15 15 14 13 13 12 12 12 14 14 14 15 15 15 15 16 15 14 13 13 14 14 13 13 14 14 13 13 15 17 17 16 15 16 16 14 14 14 14 15 17 18 18 19 19 17 16 15 15 17 17 17 15 14 15 13 13 16 16 15
Wind_Direction
167 167 164 163 162 163 169 166 163 166 164 165 168 170 169 167 167 168 169 170 168 162 160 158 155 156 159 163 163 169 174 169 167 167 163 157 154 150 147 151 154 150 144 137 122 112 111 113 113 116 119 103 79 77 102 102 99 98 98 102 104 114
170 169 168 165 163 163 165 162 162 164 163 164 164 167 167 161 162 167 171 175 175 173 171 166 162 159 157 163 170 169 168 170 169 168 164 157 153 150 154 161 159 154 151 139 122 116 117 118 118 120 111 87 78 101 108 100 101 98 99 103 109 125
173 173 171 168 165 163 162 163 165 164 165 167 162 165 168 166 170 172 175 180 182 177 173 173 168 162 159 159 169 170 164 169 171 171 166 159 154 153 159 163 162 160 154 138 127 131 130 129 128 121 104 85 104 119 105 102 98 95 97 101 113 129
177 175 172 171 167 164 165 165 166 166 168 171 171 174 176 176 178 179 181 187 190 178 172 180 171 165 166 160 167 170 163 165 170 173 166 158 155 156 161 164 165 162 156 147 146 149 139 138 140 133 121 113 123 117 107 101 92 93 95 101 116 122
178 178 175 172 169 165 164 165 169 170 170 173 178 182 181 182 183 184 190 199 199 180 176 186 173 168 172 164 164 165 162 158 160 167 164 163 164 161 163 165 167 167 171 173 164 156 144 143 144 145 141 125 121 117 108 95 90 93 92 101 118 122
180 182 177 173 169 164 164 167 174 175 176 178 180 184 183 184 188 188 195 205 201 183 184 190 177 178 181 175 172 170 168 160 155 162 169 178 179 175 175 171 172 179 185 182 167 159 151 147 145 142 136 127 123 115 105 97 91 90 92 102 120 129
183 182 173 171 169 166 171 175 178 178 183 185 181 185 188 188 191 191 194 198 197 193 194 195 190 187 185 183 185 184 178 169 162 163 174 188 189 190 192 182 182 188 186 178 169 163 156 154 149 142 135 129 122 113 109 105 98 97 102 108 123 130
180 172 166 170 173 176 177 179 182 181 189 191 186 190 195 193 192 195 198 198 198 201 205 205 200 193 190 190 193 195 189 181 175 169 176 190 197 200 201 195 192 190 184 177 168 163 163 161 155 148 138 131 125 119 116 110 107 108 111 115 126 138
171 167 169 171 180 189 182 182 190 189 195 194 191 196 198 198 197 200 203 203 205 206 209 209 199 192 194 194 198 204 203 197 188 179 180 189 199 201 204 205 198 192 188 180 170 169 170 168 164 156 143 134 131 125 121 119 117 116 117 121 133 156
172 169 170 174 184 196 187 188 197 195 198 196 195 199 199 202 204 207 209 207 209 208 209 212 200 191 193 197 203 210 212 208 199 194 190 191 197 200 205 206 197 192 189 183 177 176 175 174 171 158 144 138 135 133 134 130 125 124 126 123 129 145
173 169 170 180 188 195 194 196 202 201 203 202 200 198 201 208 212 216 215 209 211 209 209 216 208 196 196 201 207 213 218 216 209 206 203 199 198 199 204 204 197 191 190 188 182 178 178 176 173 164 154 146 141 146 149 137 132 134 135 131 131 142
170 171 171 181 188 195 200 202 207 208 210 210 206 203 207 213 219 223 220 215 215 213 210 214 211 203 204 207 208 213 220 224 218 212 209 206 204 201 201 203 198 193 190 190 184 178 176 175 176 175 167 159 155 160 159 145 144 145 144 144 144 149
178 178 176 185 194 201 204 207 212 216 220 221 217 216 218 218 222 227 225 221 220 220 218 214 211 208 211 212 211 213 220 226 223 217 212 208 208 204 201 201 200 198 192 190 188 182 176 174 180 182 175 168 169 170 163 156 155 154 154 156 159 161
194 190 189 195 200 206 209 213 219 224 228 230 234 236 234 230 229 232 232 230 229 228 228 224 215 209 214 217 215 215 218 224 224 221 215 211 211 209 205 203 203 203 197 194 193 188 182 177 180 184 181 178 179 176 168 166 163 160 162 163 167 166
200 200 202 203 205 212 216 219 225 231 232 235 243 248 248 244 240 242 244 244 239 234 231 230 224 215 215 217 219 221 221 223 223 221 219 215 214 213 210 206 204 203 199 197 194 191 187 182 184 188 189 189 186 182 178 176 170 166 168 168 170 171
189 201 210 213 216 222 225 227 229 233 234 233 238 246 252 251 251 253 256 256 250 243 238 233 231 229 223 218 219 224 224 225 223 220 222 220 217 215 212 208 206 203 200 196 191 188 187 185 189 191 194 197 192 192 188 180 178 172 168 171 171 171
178 205 220 228 232 234 235 235 236 237 235 231 234 244 253 254 253 253 259 266 265 257 248 241 237 236 234 227 223 227 227 227 226 224 225 223 222 219 211 206 206 204 200 195 193 190 186 187 188 189 196 200 196 197 190 179 184 179 173 177 174 172
174 198 219 231 236 239 243 243 240 237 237 237 237 244 257 260 253 245 246 252 261 264 259 253 247 240 237 234 229 230 231 230 229 226 227 226 224 220 210 204 203 201 197 196 199 195 188 186 184 188 195 199 197 195 190 190 194 191 186 183 177 177
182 198 213 223 230 234 237 240 239 233 231 231 229 232 244 247 239 234 236 241 245 249 253 254 251 246 240 239 235 233 234 234 233 229 227 226 224 219 210 204 200 195 191 198 205 197 187 182 182 188 191 193 195 194 199 203 202 201 197 187 180 181
196 209 214 222 231 238 239 240 238 235 230 225 223 229 238 239 232 227 233 240 236 230 233 235 241 246 243 243 240 237 238 238 237 233 226 223 221 216 210 202 194 191 188 194 204 195 184 180 178 183 186 189 192 194 204 208 209 209 202 191 185 184
174 202 218 228 234 240 246 250 248 245 238 232 232 235 243 245 238 226 229 240 237 230 229 227 233 240 240 241 239 237 238 236 237 236 228 224 222 219 217 208 197 197 193 191 198 192 182 178 174 175 179 186 192 196 204 210 214 213 204 196 191 188
166 178 198 227 240 241 244 249 250 248 241 235 238 240 248 253 247 237 238 242 240 237 236 234 235 238 238 240 238 237 236 233 236 238 232 228 227 224 219 212 205 203 196 191 194 190 184 181 183 185 181 181 194 203 210 217 219 212 204 200 195 192
162 172 180 191 220 234 238 243 243 240 238 236 240 243 247 253 252 240 235 238 240 242 243 242 239 237 238 239 237 237 236 237 239 236 228 223 223 223 219 216 213 206 198 192 194 195 192 191 195 197 194 195 199 205 212 213 217 211 201 201 200 197
151 177 186 179 185 234 239 239 237 234 239 242 245 249 251 258 259 241 229 230 236 241 243 245 243 239 239 237 235 235 234 236 237 234 228 222 220 220 219 216 211 205 198 190 190 199 201 202 206 202 201 210 184 204 225 203 202 204 198 203 206 201
34 221 221 220 253 289 250 234 237 234 237 243 247 250 254 261 262 251 241 234 234 235 238 245 249 247 245 239 234 232 233 234 235 233 229 226 225 222 216 213 209 206 202 194 190 198 204 207 212 203 195 211 177 215 242 189 180 194 196 203 208 204
21 8 338 278 285 298 260 237 243 240 238 244 248 247 248 255 258 259 257 247 241 238 237 243 247 245 243 238 231 228 230 232 232 230 225 226 229 225 216 210 208 205 205 205 201 202 207 210 216 210 203 219 231 246 244 176 170 188 193 203 210 206
15 8 5 329 306 311 281 253 249 247 248 253 257 258 254 253 257 261 262 254 248 245 242 241 240 238 238 237 232 224 223 228 230 228 225 224 226 224 215 206 205 202 204 211 208 206 209 208 213 215 214 223 234 251 245 182 181 185 183 201 210 207
15 6 356 335 314 307 293 280 270 261 258 257 261 267 267 261 255 252 254 250 245 245 243 238 235 233 238 240 234 224 219 224 227 224 221 216 217 220 215 207 205 203 204 209 208 207 208 206 208 214 216 222 231 243 237 209 204 196 188 194 197 203
21 14 357 342 328 309 298 293 288 280 271 263 261 265 266 261 251 243 247 247 241 236 233 233 233 233 241 243 233 224 217 215 217 217 212 207 207 214 215 208 202 198 201 208 212 212 209 209 213 215 216 219 227 233 229 224 215 196 192 188 179 196
19 13 1 350 337 321 313 302 293 286 279 273 267 263 262 259 252 244 246 251 247 241 237 238 238 233 237 239 232 226 218 208 209 211 210 202 195 198 204 203 199 199 203 209 214 215 214 216 219 221 221 218 221 219 214 223 210 190 189 195 192 193
18 10 2 354 342 330 323 311 299 290 283 281 279 273 261 257 255 249 248 252 251 249 246 246 243 235 231 234 232 226 217 208 205 206 208 203 193 189 191 194 199 202 204 209 215 218 221 222 221 223 224 221 219 214 216 229 214 197 203 204 197 186
17 11 2 354 344 337 332 322 308 297 291 289 288 280 267 261 261 258 251 245 243 243 240 237 237 233 229 231 231 224 217 210 205 203 206 205 199 195 193 193 196 198 203 212 217 219 221 221 219 222 226 224 222 218 224 234 226 219 224 218 216 191
13 11 5 357 350 344 339 335 322 303 296 294 291 285 278 272 268 265 258 245 240 242 239 232 231 230 227 230 228 223 217 208 203 202 203 206 205 204 204 199 194 196 208 217 218 220 223 222 221 226 227 227 228 224 228 232 224 224 226 222 236 230
7 6 4 360 357 353 347 341 331 314 302 296 294 289 285 280 272 268 265 257 250 248 246 240 237 232 227 227 225 220 216 207 202 200 201 202 203 207 209 203 196 198 211 222 223 225 228 226 227 231 229 229 233 230 230 232 226 221 221 219 227 234
360 359 358 357 357 357 353 344 334 326 316 306 299 293 285 280 275 271 269 264 258 252 247 244 243 237 226 222 220 219 216 207 201 198 198 200 202 203 202 200 199 202 212 221 226 230 231 231 232 232 231 231 234 231 227 230 227 219 217 221 223 221
356 355 354 353 352 350 349 346 340 334 326 316 307 297 288 281 277 274 270 264 258 254 248 244 245 242 230 221 216 217 216 207 201 200 196 197 198 198 199 199 199 201 207 213 221 227 227 229 231 231 232 233 231 231 228 225 226 225 222 224 237 240
354 354 352 350 348 345 344 345 345 339 331 324 315 307 298 291 284 278 272 265 259 256 251 245 243 241 237 228 217 215 214 206 202 202 199 198 199 198 200 202 201 203 207 210 216 223 222 222 225 226 230 233 232 233 230 222 221 228 226 223 234 245